Home > Weather > Bridgewater > Past weeks

Flag for USA Weather for the Past 2 Weeks in Bridgewater, Massachusetts, USA

Now
51 °F

Mostly cloudy.


Feels Like: 48 °F
Forecast: 43 / 53 °F
Wind: 9 mph from East

Location: Taunton Municipal Airport

Current Time: May 4, 2016 at 3:28:55 PM

Latest Report: May 4, 2016 at 1:52 PM


Visibility: 10 mi

Pressure: 29.82 "Hg

Humidity: 66%

Dew Point: 40 °F

Location of BridgewaterLocation

Historic Weather in Bridgewater — Graph

°F

Bridgewater Temperature Yesterday

Maximum temperature yesterday: 51 °F (at 11:52 AM)
Minimum temperature yesterday: 46 °F (at 3:52 AM)
Average temperature yesterday: 49 °F

High & Low Weather Summary for the Past Weeks

 TemperatureHumidityPressure
High81 °F (Apr 22, 12:52 PM)93% (Apr 28, 1:59 AM)30.27 "Hg (Apr 28, 1:59 AM)
Low30 °F (Apr 28, 4:52 AM)14% (Apr 24, 2:52 PM)29.73 "Hg (Apr 26, 11:52 AM)
Average51 °F63%30.00 "Hg
* Reported Apr 19 1:52 PM — May 4 1:52 PM, Bridgewater, Weather by CustomWeather, © 2016

Note: Actual official high and low records may vary slightly from our data, if they occured in-between our weather recording intervals... More about our weather records

Advertising

Bridgewater Weather History for the Previous 24 Hours

Scroll right to see more
 ConditionsComfort  
Time TempWeatherWind HumidityBarometerVisibility
1:52 PM
Wed, May 4
51 °FMostly cloudy.9 mph66%29.82 "Hg10 mi
12:52 PM52 °FOvercast.10 mph64%29.85 "Hg10 mi
11:52 AM53 °FOvercast.6 mph61%29.86 "Hg10 mi
10:52 AM52 °FMostly cloudy.6 mph66%29.87 "Hg10 mi
9:52 AM52 °FOvercast.7 mph69%29.85 "Hg10 mi
8:52 AM50 °FOvercast.8 mph74%29.85 "Hg10 mi
8:02 AM49 °FMostly cloudy.7 mph77%29.86 "Hg10 mi
6:52 AM47 °FOvercast.3 mph83%29.86 "Hg10 mi
5:52 AM46 °FPassing clouds.3 mph86%29.84 "Hg10 mi
4:52 AM46 °FPassing clouds.No wind86%29.85 "Hg10 mi
3:52 AM47 °FLow clouds.No wind83%29.84 "Hg10 mi
2:52 AM47 °FOvercast.3 mph86%29.83 "Hg10 mi
1:52 AM47 °FMostly cloudy.No wind83%29.84 "Hg10 mi
12:52 AM47 °FOvercast.No wind83%29.85 "Hg10 mi
11:52 PM
Tue, May 3
48 °FOvercast.No wind80%29.86 "Hg10 mi
10:52 PM48 °FMostly cloudy.No wind80%29.87 "Hg10 mi
9:52 PM48 °FOvercast.5 mph80%29.87 "Hg10 mi
8:52 PM48 °FOvercast.3 mph80%29.86 "Hg10 mi
7:52 PM49 °FOvercast.No wind77%29.85 "Hg10 mi
6:52 PM50 °FOvercast.No wind74%29.85 "Hg10 mi
5:52 PM50 °FMostly cloudy.3 mph77%29.84 "Hg10 mi
4:52 PM50 °FOvercast.7 mph80%29.84 "Hg10 mi
3:52 PM51 °FOvercast.5 mph80%29.84 "Hg10 mi
Weather by CustomWeather, © 2016

See weather overviewHow to use our weather pages